CW8466 Weather Reports


time (UTC)temp
C
wind
direction
speed
KPH
gust
KPH
rain 1hr
cm
rain 24hr
cm
rain mn
cm
humidity
%
barometer
mb
20260510060346 22 165 0.0 0.0 0.00 0.05 0.00 94 1011.3
20260510054829 22 168 0.0 0.0 0.00 0.05 0.00 92 1011.2
20260510053345 23 201 0.0 0.0 0.00 0.05 0.00 91 1010.9
20260510051841 22 204 0.0 6.4 0.00 0.05 0.00 91 1010.7
20260510050336 22 157 0.0 0.0 0.00 0.05 0.00 89 1011.1
20260510044836 23 157 0.0 0.0 0.00 0.05 0.05 88 1011.0
20260510043334 23 157 0.0 0.0 0.00 0.05 0.05 87 1010.9
20260510041828 23 157 0.0 0.0 0.00 0.05 0.05 87 1010.6
20260510040359 23 143 0.0 0.0 0.00 0.05 0.05 86 1010.5
20260510034831 24 142 0.0 0.0 0.00 0.05 0.05 85 1010.6
20260510033342 24 144 0.0 0.0 0.00 0.05 0.05 86 1010.3
20260510031833 25 158 0.0 0.0 0.00 0.05 0.05 85 1010.2
20260510030345 25 180 0.0 0.0 0.00 0.05 0.05 84 1009.9
20260510024900 25 180 0.0 0.0 0.00 0.05 0.05 83 1009.5
20260510023342 25 180 0.0 0.0 0.00 0.05 0.05 82 1009.2
20260510021846 26 180 0.0 0.0 0.00 0.05 0.05 81 1009.0
20260510020336 26 179 0.0 0.0 0.00 0.05 0.05 81 1008.8
20260510014828 26 175 0.0 0.0 0.00 0.05 0.05 81 1008.7
20260510013340 27 174 1.6 11.3 0.00 0.05 0.05 79 1008.8
20260510011838 27 169 4.8 14.5 0.00 0.05 0.05 77 1008.9
20260510010331 28 165 6.4 11.3 0.00 0.05 0.05 75 1009.0
20260510004828 29 127 11.3 17.7 0.00 0.05 0.05 73 1008.8
20260510003343 30 167 16.1 22.5 0.00 0.05 0.05 71 1008.6
20260510001838 31 136 3.2 11.3 0.00 0.05 0.05 67 1008.1
20260510000335 31 132 1.6 11.3 0.00 0.05 0.05 65 1008.0
20260509234832 32 157 3.2 12.9 0.00 0.05 0.05 61 1007.8
20260509233350 32 145 8.0 12.9 0.00 0.05 0.05 62 1007.7
20260509231837 32 159 8.0 14.5 0.00 0.05 0.05 60 1007.8
20260509230328 33 315 0.0 4.8 0.00 0.05 0.05 58 1007.9
20260509224841 32 315 1.6 9.7 0.00 0.05 0.05 62 1007.8
20260509223329 33 306 0.0 4.8 0.00 0.05 0.05 61 1008.1
20260509221843 32 306 1.6 6.4 0.00 0.05 0.05 61 1008.0
20260509220346 32 309 3.2 6.4 0.00 0.05 0.05 64 1008.0
20260509214831 32 309 0.0 6.4 0.00 0.05 0.05 62 1008.1
20260509213336 32 311 1.6 8.0 0.00 0.05 0.05 61 1008.0
20260509211845 32 236 4.8 8.0 0.00 0.05 0.05 63 1008.1
20260509210335 32 355 3.2 8.0 0.00 0.05 0.05 63 1008.2
20260509204846 32 355 6.4 12.9 0.00 0.05 0.05 62 1008.3
20260509203337 32 5 3.2 8.0 0.00 0.05 0.05 63 1008.5
20260509201845 32 320 6.4 12.9 0.00 0.05 0.05 64 1008.6
20260509200337 32 297 6.4 12.9 0.00 0.05 0.05 64 1008.8
20260509194828 31 304 3.2 6.4 0.00 0.05 0.05 67 1009.0
20260509193342 31 313 1.6 14.5 0.00 0.05 0.05 67 1009.1
20260509191903 31 331 0.0 6.4 0.00 0.05 0.05 71 1009.3
20260509190401 31 329 3.2 9.7 0.00 0.05 0.05 70 1009.5
20260509184829 31 276 9.7 14.5 0.00 0.05 0.05 71 1009.6
20260509183339 30 302 1.6 9.7 0.00 0.05 0.05 72 1009.6
20260509181836 30 28 0.0 0.0 0.00 0.05 0.05 76 1009.8
20260509180328 30 277 6.4 16.1 0.00 0.05 0.05 71 1010.0
20260509174835 29 343 0.0 0.0 0.00 0.05 0.05 74 1010.2
20260509173353 29 5 0.0 0.0 0.00 0.05 0.05 77 1010.4
20260509171843 29 327 8.0 16.1 0.00 0.05 0.05 76 1010.3
20260509170332 28 323 4.8 14.5 0.00 0.05 0.05 76 1010.4
20260509164828 28 316 6.4 20.9 0.00 0.05 0.05 75 1010.5
20260509163333 28 296 0.0 12.9 0.00 0.05 0.05 76 1010.4
20260509161840 28 300 0.0 6.4 0.00 0.05 0.05 75 1009.9
20260509160353 27 281 3.2 9.7 0.00 0.05 0.05 80 1009.5
20260509154841 27 294 6.4 17.7 0.00 0.05 0.05 83 1010.2
20260509153403 27 257 6.4 16.1 0.00 0.05 0.05 84 1010.2
20260509151838 26 258 8.0 22.5 0.00 0.05 0.05 87 1010.0
20260509150327 26 218 9.7 17.7 0.00 0.05 0.05 92 1010.0
20260509144837 25 211 11.3 16.1 0.00 0.05 0.05 95 1010.1
20260509143326 24 297 0.0 4.8 0.00 0.05 0.05 98 1010.7
20260509141838 23 313 0.0 0.0 0.00 0.05 0.05 99 1011.1
20260509140335 23 313 0.0 0.0 0.00 0.05 0.05 99 1011.1
20260509134833 23 313 0.0 0.0 0.00 0.05 0.05 99 1010.8
20260509133341 23 313 0.0 0.0 0.00 0.05 0.05 100 1010.5
20260509131829 23 313 0.0 4.8 0.00 0.05 0.05 99 1010.4
20260509130344 23 349 0.0 0.0 0.00 0.05 0.05 98 1010.6
20260509124839 23 355 0.0 9.7 0.00 0.10 0.05 97 1010.4
20260509123329 23 346 4.8 8.0 0.00 0.10 0.05 97 1010.5
20260509121834 23 5 6.4 16.1 0.00 0.10 0.05 98 1010.5
20260509120344 23 323 17.7 27.4 0.03 0.10 0.05 99 1009.9
20260509114832 23 173 17.7 32.2 0.05 0.10 0.05 100 1007.6
20260509113341 23 184 27.4 45.1 0.05 0.10 0.05 100 1007.0
20260509111839 23 147 29.0 40.2 0.05 0.10 0.05 100 1007.3
20260509110327 23 174 16.1 27.4 0.03 0.08 0.03 100 1009.6
20260509104837 23 178 0.0 0.0 0.00 0.05 0.00 100 1010.2
20260509103351 23 153 0.0 0.0 0.00 0.05 0.00 100 1010.1
20260509101843 23 153 0.0 0.0 0.00 0.05 0.00 100 1009.7
20260509100334 23 153 0.0 0.0 0.00 0.05 0.00 100 1009.3
20260509094847 23 146 0.0 0.0 0.00 0.05 0.00 100 1009.1
20260509093336 22 134 0.0 0.0 0.00 0.05 0.00 100 1009.1
20260509091840 22 134 0.0 0.0 0.00 0.05 0.00 100 1009.1
20260509090351 22 134 0.0 0.0 0.00 0.05 0.00 100 1008.8
20260509084858 22 134 0.0 0.0 0.00 0.05 0.00 100 1009.2
20260509083330 22 134 0.0 0.0 0.00 0.05 0.00 100 1009.1
20260509081844 22 134 0.0 0.0 0.00 0.05 0.00 100 1009.0
20260509080342 22 134 0.0 0.0 0.00 0.05 0.00 100 1009.1
20260509074839 22 134 0.0 0.0 0.00 0.05 0.00 100 1009.1
20260509073403 22 136 0.0 0.0 0.00 0.05 0.00 100 1009.1
20260509071832 22 136 0.0 0.0 0.00 0.05 0.00 100 1009.5
20260509070336 22 131 0.0 0.0 0.00 0.05 0.00 100 1009.6
20260509064854 22 131 0.0 0.0 0.00 0.05 0.00 100 1009.8
20260509063340 22 131 0.0 0.0 0.00 0.05 0.00 100 1010.2
20260509061854 22 131 0.0 0.0 0.00 0.05 0.00 100 1010.3